VK4VP-5 Buderim QLD AU current weather conditions

sailwx.info

Air temperature 25.0° C
Dewpoint 21.5° C

Last reported at 2015-Mar-01 11:47 UTC.
Time now 2015-Mar-01 12:38 UTC

Location: S 26°42' E 153°05'.
View on Google Maps.

See reports from other nearby stations

  
Tides and Currents Weather Stations Pressure Air Temp Water Temp Dewpoint Dewpoint Depression Visibility Wind Speed Wind Dir Waves Ship Positions
date/time (UTC)wind fromknots sea level pressurealtimeterstation pressurevisibilityair tempwater tempwave heightnotes
2015-Mar-01 11:47 25.0
2015-Mar-01 11:37 034 25.6
2015-Mar-01 11:27 034 25.6
2015-Mar-01 11:17 035 0 gusting 5 25.6
2015-Mar-01 11:07 034 0 gusting 3 25.6
2015-Mar-01 10:57 034 25.0
2015-Mar-01 10:47 035 25.0
2015-Mar-01 10:37 034 25.0
2015-Mar-01 10:27 034 25.0
2015-Mar-01 10:17 034 25.0
2015-Mar-01 10:07 034 25.0
2015-Mar-01 09:57 034 25.0
2015-Mar-01 09:47 034 25.6
2015-Mar-01 09:37 035 0 gusting 5 25.6
2015-Mar-01 09:27 035 0 gusting 6 25.6
2015-Mar-01 09:17 035 0 gusting 5 25.6
2015-Mar-01 09:07 035 0 gusting 5 25.6
2015-Mar-01 08:57 035 25.6
2015-Mar-01 08:47 035 0 gusting 3 25.6
2015-Mar-01 08:37 035 25.6
2015-Mar-01 08:27 035 0 gusting 3 25.6
2015-Mar-01 08:17 035 0 gusting 3 25.6
2015-Mar-01 08:07 035 1 gusting 6 26.1
2015-Mar-01 07:57 035 26.1
2015-Mar-01 07:47 035 1 gusting 8 26.1
2015-Mar-01 07:37 033 3 gusting 8 26.1
2015-Mar-01 07:27 031 3 gusting 8 26.7
2015-Mar-01 07:17 034 3 gusting 8 26.7
2015-Mar-01 07:07 034 1 gusting 7 26.7
2015-Mar-01 06:57 033 2 gusting 9 26.7
2015-Mar-01 06:47 030 2 gusting 8 26.7
2015-Mar-01 06:37 028 2 gusting 7 27.2
2015-Mar-01 06:27 029 3 gusting 8 27.2
2015-Mar-01 06:17 026 2 gusting 7 27.2
2015-Mar-01 06:07 026 2 gusting 8 27.2
2015-Mar-01 05:57 034 2 gusting 10 27.2
2015-Mar-01 02:35 060 2 gusting 7 27.8
2015-Mar-01 02:25 066 3 gusting 8 28.3
2015-Mar-01 02:15 078 1 gusting 6 27.8
2015-Mar-01 02:05 076 1 gusting 8 27.8
2015-Mar-01 01:55 081 2 gusting 8 27.8
2015-Mar-01 01:45 085 1 gusting 8 28.3
2015-Mar-01 01:35 085 0 gusting 3 28.3
2015-Mar-01 01:25 079 1 gusting 8 28.3
2015-Mar-01 01:15 076 1 gusting 6 27.8
2015-Mar-01 01:05 079 0 gusting 6 28.3
2015-Mar-01 00:55 071 1 gusting 7 27.8
2015-Mar-01 00:45 067 1 gusting 5 27.8
2015-Mar-01 00:35 066 2 gusting 8 27.8
2015-Mar-01 00:25 065 0 gusting 7 27.8
2015-Mar-01 00:15 062 0 gusting 6 27.8
2015-Mar-01 00:05 060 0 gusting 6 27.8
2015-Feb-28 23:55 059 0 gusting 6 27.8
2015-Feb-28 23:45 059 0 gusting 6 27.2
2015-Feb-28 23:35 060 1 gusting 6 27.2
2015-Feb-28 23:25 062 26.7
2015-Feb-28 23:15 063 0 gusting 3 26.7
2015-Feb-28 23:05 064 0 gusting 5 27.8
2015-Feb-28 22:55 064 27.2
2015-Feb-28 22:45 064 27.2
2015-Feb-28 22:35 063 26.7
2015-Feb-28 22:25 064 26.1
2015-Feb-28 22:15 064 25.6
2015-Feb-28 22:05 063 25.6
2015-Feb-28 21:55 064 25.0
2015-Feb-28 21:45 064 24.4
2015-Feb-28 21:35 064 23.9
2015-Feb-28 21:25 064 23.3
2015-Feb-28 21:15 064 22.8
2015-Feb-28 21:05 063 22.8
2015-Feb-28 20:55 21.7
2015-Feb-28 20:45 027 21.1
2015-Feb-28 20:35 057 21.1
2015-Feb-28 20:25 057 21.1
2015-Feb-28 20:15 053 20.6
2015-Feb-28 20:05 20.6
2015-Feb-28 19:55 20.6
2015-Feb-28 19:45 21.1
2015-Feb-28 19:35 21.1
2015-Feb-28 19:25 052 21.1
2015-Feb-28 19:15 21.1
2015-Feb-28 19:05 21.1
2015-Feb-28 18:55 052 21.1
2015-Feb-28 18:45 21.1
2015-Feb-28 18:35 21.1
2015-Feb-28 18:25 051 21.1
2015-Feb-28 18:15 051 21.7
2015-Feb-28 18:05 21.7
2015-Feb-28 17:55 21.7
2015-Feb-28 17:45 052 21.7
2015-Feb-28 17:35 051 21.7
2015-Feb-28 17:25 21.7
2015-Feb-28 17:15 052 21.7
2015-Feb-28 17:05 052 21.7
2015-Feb-28 16:55 052 21.7
2015-Feb-28 16:45 21.7
2015-Feb-28 16:35 21.7
2015-Feb-28 16:25 052 21.7
2015-Feb-28 16:15 052 21.7
2015-Feb-28 16:05 052 21.7
2015-Feb-28 15:55 21.7
2015-Feb-28 15:45 21.7
2015-Feb-28 15:35 21.7
2015-Feb-28 15:25 21.7
2015-Feb-28 15:15 21.7
2015-Feb-28 15:05 21.7
2015-Feb-28 14:55 21.7
2015-Feb-28 14:45 21.7
2015-Feb-28 14:35 21.7
2015-Feb-28 14:25 22.2
2015-Feb-28 14:15 22.2
2015-Feb-28 14:05 22.2
2015-Feb-28 13:55 22.2
2015-Feb-28 13:45 22.8
2015-Feb-28 13:35 22.8
2015-Feb-28 13:25 22.8
2015-Feb-28 13:15 22.8
2015-Feb-28 13:05 22.8
2015-Feb-28 12:55 22.8
2015-Feb-28 12:45 22.8
2015-Feb-28 12:35 23.3
2015-Feb-28 12:25 23.3
2015-Feb-28 12:15 23.3
2015-Feb-28 12:05 23.9
2015-Feb-28 11:55 23.9
2015-Feb-28 11:45 24.4
2015-Feb-28 11:35 24.4
2015-Feb-28 11:25 24.4
2015-Feb-28 11:15 25.0
2015-Feb-28 11:05 052 25.0
2015-Feb-28 10:55 052 25.0
2015-Feb-28 10:45 052 25.0
2015-Feb-28 10:35 052 25.0
2015-Feb-28 10:25 052 25.0
2015-Feb-28 10:15 052 25.0
2015-Feb-28 10:05 051 25.0
2015-Feb-28 09:55 051 25.0
2015-Feb-28 09:45 052 25.6
2015-Feb-28 09:35 052 25.6
2015-Feb-28 09:25 050 0 gusting 6 25.6
2015-Feb-28 09:13 045 25.6
2015-Feb-28 09:03 045 25.6
2015-Feb-28 08:53 045 25.6
2015-Feb-28 08:43 045 25.6
2015-Feb-28 08:33 045 25.6
2015-Feb-28 08:23 042 25.6
2015-Feb-28 08:13 037 25.6
2015-Feb-28 08:03 036 0 gusting 5 26.1
2015-Feb-28 07:53 032 26.1
2015-Feb-28 07:43 029 26.1
2015-Feb-28 07:33 029 26.1
2015-Feb-28 07:23 025 26.1
2015-Feb-28 07:13 025 26.1
2015-Feb-28 07:03 049 0 gusting 8 26.1
2015-Feb-28 06:53 084 0 gusting 6 26.7
2015-Feb-28 05:49 096 1 gusting 8 27.8
2015-Feb-28 05:39 080 1 gusting 8 27.8
2015-Feb-28 05:29 081 1 gusting 8 27.2
2015-Feb-28 05:19 083 2 gusting 8 27.8
2015-Feb-28 05:09 082 1 gusting 6 27.8
2015-Feb-28 04:59 084 1 gusting 8 27.8
2015-Feb-28 04:55 087 1 gusting 8 27.8
2015-Feb-28 04:49 091 2 gusting 8 27.8
2015-Feb-28 04:39 086 1 gusting 8 27.8
2015-Feb-28 04:29 085 1 gusting 10 28.3
2015-Feb-28 04:19 064 2 gusting 8 27.8
2015-Feb-28 04:09 090 3 gusting 11 27.8
2015-Feb-28 03:59 096 1 gusting 10 28.3
2015-Feb-28 03:49 081 1 gusting 8 28.3
2015-Feb-28 03:39 096 0 gusting 6 28.3
2015-Feb-28 03:29 099 0 gusting 7 28.3
2015-Feb-28 03:19 102 1 gusting 8 28.3
2015-Feb-28 03:09 109 1 gusting 9 28.3
2015-Feb-28 03:05 096 1 gusting 9 27.8
2015-Feb-28 02:59 067 1 gusting 9 28.3
2015-Feb-28 02:49 060 2 gusting 8 28.3
2015-Feb-28 02:39 070 0 gusting 7 28.3
2015-Feb-28 02:29 070 2 gusting 8 27.8
2015-Feb-28 02:25 070 1 gusting 6 27.8
2015-Feb-28 02:19 067 2 gusting 8 28.3
2015-Feb-28 02:09 064 1 gusting 8 28.3
2015-Feb-28 01:59 066 1 gusting 8 27.8
2015-Feb-28 01:49 065 1 gusting 6 28.3
2015-Feb-28 01:39 065 0 gusting 6 28.3
2015-Feb-28 01:29 065 1 gusting 8 27.8
2015-Feb-28 01:19 065 2 gusting 7 27.8
2015-Feb-28 01:09 065 1 gusting 7 28.3
2015-Feb-28 01:05 065 1 gusting 7 28.3
2015-Feb-28 00:59 065 1 gusting 7 28.3
2015-Feb-28 00:55 065 0 gusting 6 28.3
2015-Feb-28 00:49 065 0 gusting 6 28.3
2015-Feb-28 00:45 065 0 gusting 5 28.3
2015-Feb-28 00:39 065 0 gusting 6 28.3
2015-Feb-28 00:29 065 0 gusting 5 28.3
2015-Feb-28 00:19 065 0 gusting 5 27.8
2015-Feb-28 00:09 065 1 gusting 7 28.3
2015-Feb-28 00:05 065 0 gusting 5 27.8
2015-Feb-27 23:59 065 27.8
2015-Feb-27 23:49 065 0 gusting 6 27.2
2015-Feb-27 23:39 065 0 gusting 6 27.8
2015-Feb-27 23:29 065 28.3
2015-Feb-27 23:25 065 27.8
2015-Feb-27 23:19 065 27.2
2015-Feb-27 23:09 065 27.2
2015-Feb-27 22:59 065 26.7
2015-Feb-27 22:49 065 26.1
2015-Feb-27 22:39 065 26.1
2015-Feb-27 22:29 065 26.1
2015-Feb-27 22:19 065 25.6
2015-Feb-27 22:09 065 25.6
2015-Feb-27 21:59 065 25.0
2015-Feb-27 21:49 065 24.4
2015-Feb-27 21:39 065 24.4
2015-Feb-27 21:35 065 23.9
2015-Feb-27 21:29 065 23.9
2015-Feb-27 21:19 065 23.3
2015-Feb-27 21:15 065 23.3
2015-Feb-27 21:09 065 22.8
2015-Feb-27 20:59 065 22.8
2015-Feb-27 20:55 065 22.2
2015-Feb-27 20:49 066 22.2
2015-Feb-27 20:39 064 21.7
2015-Feb-27 20:29 065 21.7
2015-Feb-27 20:19 21.1
2015-Feb-27 20:09 21.1
2015-Feb-27 20:05 064 21.1
2015-Feb-27 19:59 064 21.1
2015-Feb-27 19:49 064 21.1
2015-Feb-27 19:45 065 21.1
2015-Feb-27 19:39 065 21.1
2015-Feb-27 19:35 064 21.1
2015-Feb-27 19:29 21.1
2015-Feb-27 19:19 21.1
2015-Feb-27 19:09 064 21.1
2015-Feb-27 18:59 21.1
2015-Feb-27 18:55 064 21.1
2015-Feb-27 18:49 064 21.1
2015-Feb-27 18:39 064 21.1
2015-Feb-27 18:29 21.1
2015-Feb-27 18:25 21.1
2015-Feb-27 18:19 21.1
2015-Feb-27 18:09 21.1
2015-Feb-27 18:05 21.7
2015-Feb-27 17:59 21.7
2015-Feb-27 17:49 064 21.7
2015-Feb-27 17:45 064 21.7
2015-Feb-27 17:39 21.7
2015-Feb-27 17:29 065 21.7
2015-Feb-27 17:19 21.7
2015-Feb-27 17:09 21.7
2015-Feb-27 17:05 21.7
2015-Feb-27 16:59 064 21.7
2015-Feb-27 16:55 064 21.7
2015-Feb-27 16:49 064 21.7
2015-Feb-27 16:45 21.7
2015-Feb-27 16:39 21.7
2015-Feb-27 16:29 21.1
2015-Feb-27 16:19 21.1
2015-Feb-27 16:15 21.1
2015-Feb-27 16:09 21.7
2015-Feb-27 15:59 21.7
2015-Feb-27 15:49 21.7
2015-Feb-27 15:39 21.7
2015-Feb-27 15:29 21.7
2015-Feb-27 15:25 21.7
2015-Feb-27 15:19 21.7
2015-Feb-27 15:09 21.7
2015-Feb-27 14:59 21.7
2015-Feb-27 14:55 21.7
2015-Feb-27 14:49 21.7
2015-Feb-27 14:45 064 22.2
2015-Feb-27 14:39 065 22.2
2015-Feb-27 14:29 22.2
2015-Feb-27 14:26 22.2
2015-Feb-27 14:19 22.2
2015-Feb-27 14:09 22.2
2015-Feb-27 13:59 22.8
2015-Feb-27 13:49 064 22.8
2015-Feb-27 13:39 22.8
2015-Feb-27 13:35 22.8
2015-Feb-27 13:29 22.8
2015-Feb-27 13:25 22.8
2015-Feb-27 13:19 22.8
2015-Feb-27 13:09 22.8
2015-Feb-27 13:05 22.8
2015-Feb-27 12:59 064 23.3
2015-Feb-27 12:49 23.3
2015-Feb-27 12:39 23.3
2015-Feb-27 12:29 23.9
2015-Feb-27 12:19 23.9
2015-Feb-27 12:09 23.9